Regional Weather Roundup
Issued by NWS Sterling, VA

Home | Current Version | Previous Version | Graphics & Text | Print | Product List | Glossary On
Versions: 1 2 3 4 5 6 7 8 9 10 11 12 13 14 15 16 17 18 19 20 21 22 23 24 25 26 27 28 29 30 31 32 33 34 35 36 37 38 39 40 41 42 43 44 45 46 47 48 49 50
000
ASUS41 KLWX 242310
RWRLWX

REGIONAL WEATHER ROUNDUP
NATIONAL WEATHER SERVICE BALTIMORE MD/WASHINGTON DC
700 PM EDT THU JUL 24 2014

Note: "FAIR" indicates few or no clouds below 12,000 feet
with no significant weather and/or obstructions to visibility.
 TC=TEMPERATURE CELSIUS

 * =Non NWS site. Station does not report precipitation (e.g. rain,
    snow, etc.), thunder, or fog.

DCZ001-MDZ009-015-VAZ040>042-051-053>054-250000-
WASHINGTON METRO
  /KDAA//-FT BELVOIR

CITY           SKY/WX    TMP DP  RH WIND       PRES   REMARKS
WASHINGTON NAT CLOUDY    79  60  52 N7        29.90R
DULLES         CLOUDY    76  59  55 NW5       29.91R
ANDREWS AFB    CLOUDY    76  61  60 N6        29.89S
QUANTICO       CLOUDY    71  68  90 W8        29.91S
COLLEGE PARK*  CLOUDY    77  61  57 N5        29.90S
LEESBURG*      CLOUDY    77  61  57 N9        29.92S
GAITHERSBURG*  PTSUNNY   72  63  73 CALM      29.96R

$$

MDZ006>007-011-014-250000-
BALTIMORE METRO

CITY           SKY/WX    TMP DP  RH WIND       PRES   REMARKS
BWI AIRPORT    CLOUDY    76  58  53 VRB7      29.89R
MD SCIENCE CTR   N/A     78  55  44 MISG      29.90R
MARTIN STATE   CLOUDY    77  63  61 NW8       29.90
ANNAPOLIS      CLOUDY    77  62  59 NW5       29.89R
FORT MEADE*    CLOUDY    72  61  68 NW5       29.92S

$$

MDZ012-015-019>023-250000-
MARYLAND EASTERN SHORE

CITY           SKY/WX    TMP DP  RH WIND       PRES   REMARKS
OCEAN CITY     CLOUDY    75  66  73 CALM      29.88R
SALISBURY      NOT AVBL
BAY BRIDGE AP*   N/A     77  61  57 CALM      29.89R
CAMBRIDGE*     CLOUDY    77  70  78 CALM      29.89R
EASTON*        CLOUDY    75  68  78 CALM      29.92S

$$

MDZ017>025-250000-
SOUTHERN MARYLAND

CITY           SKY/WX    TMP DP  RH WIND       PRES   REMARKS
PATUXENT RIVER LGT RAIN  70  67  90 SW3       29.89S
ST INIGOES     LGT RAIN  70  66  87 CALM      29.89F
LEONARDTOWN*   CLOUDY    70  64  83 CALM      29.91S

$$

MDZ003>005-250000-
NORTH CENTRAL MARYLAND

CITY           SKY/WX    TMP DP  RH WIND       PRES   REMARKS
FREDERICK*     SUNNY     79  61  53 NE7       29.94R
HAGERSTOWN APT PTSUNNY   77  53  43 N9        29.93R
WESTMINSTER*   PTSUNNY   75  63  64 N6        29.93R

$$

MDZ501>502-250000-
WESTERN MARYLAND

CITY           SKY/WX    TMP DP  RH WIND       PRES   REMARKS
OAKLAND*       MOSUNNY   66  48  52 NW5       30.03S
CUMBERLAND*    SUNNY     81  50  34 N7        29.98R

$$

VAZ025>031-250000-
SHENANDOAH VALLEY

CITY           SKY/WX    TMP DP  RH WIND       PRES   REMARKS
WINCHESTER*    PTSUNNY   73  55  53 NE3       29.93R
STAUNTON*      PTSUNNY   70  65  82 E3        29.97S

$$

WVZ021-048>050-054>055-250000-
EASTERN WEST VIRGINIA PANHANDLE

CITY           SKY/WX    TMP DP  RH WIND       PRES   REMARKS
MARTINSBURG    PTSUNNY   76  56  49 N5        29.93R
PETERSBURG*    MOSUNNY   74  58  56 CALM      29.95S

$$

VAZ036>039-050-250000-
CENTRAL FOOTHILLS

CITY           SKY/WX    TMP DP  RH WIND       PRES   REMARKS
CHARLOTTESVILL LGT RAIN  71  67  87 CALM      29.93S
ORANGE*        CLOUDY    70  64  83 CALM      29.93S

$$

VAZ055>057-250000-
NORTH AND CENTRAL PIEDMONT

CITY           SKY/WX    TMP DP  RH WIND       PRES   REMARKS
FREDERICKSBRG* CLOUDY    70  70 100 CALM      29.89F
STAFFORD*      CLOUDY    69  69 100 CALM      29.94F

$$

NCZ024-NYZ072-PAZ021-071-VAZ022-071-250000-
OTHER REGIONAL OBSERVATIONS

CITY           SKY/WX    TMP DP  RH WIND       PRES   REMARKS
NEW YORK CITY  PTSUNNY   76  58  53 NE7       29.88R
PHILADELPHIA   CLOUDY    80  53  39 N13       29.86R
PITTSBURGH     MOSUNNY   75  51  43 NW14      29.99F
ROANOKE        CLOUDY    72  65  78 NE6       29.95S
RICHMOND       LGT RAIN  71  67  87 N9        29.90R FOG
RALEIGH        TSTM      72  68  88 NE9       29.86R

$$

ANZ530>537-250000-
MARINE OBSERVATIONS

STATION/POSITION TIME  TEMP    WIND        PRES
                       AIR SEA DIR/SP/G
                 (UTC) (F)     (DEG/KT/KT) (MB)
THOMAS PT LIGHT  2300   76 80  330/  2/  4 1012.4R
BALT KEY BRIDGE  2300   78     320/ 11/ 14 1011.8R
COVE POINT       2300   75      20/  4/  6 1012.1R
LEWISETTA        2300   71 81   20/  3/  4 1012.3S
SOLOMONS ISLAND  2300      81                N/A
PINEY POINT      2300           90/  2/  2   N/A

$$




USA.gov is the U.S. government's official web portal to all federal, state and local government web resources and services.